This demonstration page uses our WeatherBlox Daily Observations layout. Learn more.

Hourly Observations for September 29, 2015

Temp ( °F °C ) Dew Point ( °F °C ) Humidity (%) Winds ( mph kmh ) Pressure ( in mb ) Visibility ( mi km ) Precip ( " mm )
12:15 am 00:15 Partly Cloudy 63 17.1 57 13.7 81 81 NNE 16 26 29.97 1015 10 16.0934 0 0
12:35 am 00:35 Clear 62 16.8 56 13.6 82 82 NNE 13 20 30 1016 10 16.0934 0 0
12:55 am 00:55 Mostly Cloudy with Thunderstorms 62 16.5 56 13.5 83 83 N 12 19 30.03 1017 10 16.0934 0 0
1:15 am 01:15 Cloudy with Heavy Thunderstorms 60 15.8 56 13.5 86 86 NNE 12 19 30.03 1017 5 8.0467 0.05 1.27
1:35 am 01:35 Cloudy with Light Rain 59 14.9 55 13 89 89 NNE 21 33 30.03 1017 7 11.26538 0.13 3.302
1:55 am 01:55 Mostly Cloudy with Nearby Thunderstorms 58 14.4 55 12.5 88 88 NNE 18 30 30.03 1017 10 16.0934 0.13 3.302
2:15 am 02:15 Partly Cloudy 57 13.7 53 11.7 88 88 NNE 16 26 30.06 1018 10 16.0934 0 0
2:35 am 02:35 Partly Cloudy 56 13.5 53 11.7 89 89 NNE 16 26 30.06 1018 10 16.0934 0 0
2:55 am 02:55 Partly Cloudy 56 13.1 53 11.5 90 90 NE 20 31 30.06 1018 10 16.0934 0 0
3:15 am 03:15 Partly Cloudy with Thunderstorms 56 13.2 52 11.3 88 88 NE 17 28 30.06 1018 10 16.0934 0 0
8:15 am 08:15 Cloudy 54 12.2 52 11 92 92 NE 17 28 30.12 1020 10 16.0934 0 0
8:35 am 08:35 Cloudy 54 12.2 52 11 92 92 NE 12 19 30.12 1020 10 16.0934 0 0
8:55 am 08:55 Cloudy 54 12.3 52 11.1 92 92 NNE 13 20 30.15 1021 10 16.0934 0 0
9:15 am 09:15 Cloudy 54 12 52 11 94 94 NE 14 22 30.15 1021 10 16.0934 0 0
9:35 am 09:35 Cloudy 54 12.3 52 11.1 92 92 NE 16 26 30.15 1021 10 16.0934 0 0
9:55 am 09:55 Cloudy 55 12.5 52 11 91 91 NE 12 19 30.15 1021 10 16.0934 0 0
10:15 am 10:15 Cloudy 55 12.5 52 11 91 91 NE 14 22 30.18 1022 10 16.0934 0 0
10:35 am 10:35 Cloudy 55 12.7 52 11 89 89 NE 13 20 30.18 1022 10 16.0934 0 0
10:55 am 10:55 Cloudy 55 13 52 11.1 88 88 NE 14 22 30.15 1021 10 16.0934 0 0
11:15 am 11:15 Cloudy 56 13.2 52 11.1 87 87 NE 13 20 30.15 1021 10 16.0934 0 0
11:35 am 11:35 Cloudy 57 13.7 52 11.2 85 85 ENE 12 19 30.12 1020 10 16.0934 0 0
11:55 am 11:55 Cloudy 58 14.4 53 11.5 83 83 NE 14 22 30.12 1020 10 16.0934 0 0
12:15 pm 12:15 Cloudy 59 14.8 52 11.3 80 80 NE 10 17 30.15 1021 10 16.0934 0 0
12:35 pm 12:35 Mostly Cloudy 60 15.7 53 11.5 76 76 ENE 10 17 30.15 1021 10 16.0934 0 0
12:55 pm 12:55 Partly Cloudy 61 16 53 11.8 76 76 E 10 17 30.15 1021 10 16.0934 0 0
1:15 pm 13:15 Partly Cloudy 62 16.5 53 11.4 72 72 NE 10 17 30.15 1021 10 16.0934 0 0
1:35 pm 13:35 Partly Cloudy 62 16.5 53 11.4 72 72 NE 8 13 30.15 1021 10 16.0934 0 0
1:55 pm 13:55 Mostly Cloudy 63 17.1 53 11.4 69 69 ENE 9 15 30.15 1021 10 16.0934 0 0
2:15 pm 14:15 Partly Cloudy 64 17.8 53 11.4 66 66 ENE 9 15 30.09 1019 10 16.0934 0 0
2:35 pm 14:35 Mostly Cloudy 64 18 53 11.5 66 66 NE 8 13 30.09 1019 10 16.0934 0 0
2:55 pm 14:55 Cloudy 65 18.4 52 11.3 63 63 ENE 12 19 30.09 1019 10 16.0934 0 0
3:15 pm 15:15 Mostly Cloudy 66 19.1 52 11.1 60 60 E 9 15 30.09 1019 10 16.0934 0 0
3:35 pm 15:35 Mostly Cloudy 65 18.4 52 11.1 63 63 NE 7 11 30.06 1018 10 16.0934 0 0
3:55 pm 15:55 Mostly Cloudy 65 18.6 52 11 61 61 ENE 8 13 30.06 1018 10 16.0934 0 0
4:15 pm 16:15 Partly Cloudy 67 19.3 51 10.8 58 58 E 9 15 30.06 1018 10 16.0934 0 0
4:35 pm 16:35 Partly Cloudy 67 19.5 51 10.7 57 57 E 7 11 30.06 1018 10 16.0934 0 0
4:55 pm 16:55 Partly Cloudy 67 19.3 51 10.6 57 57 E 9 15 30.06 1018 10 16.0934 0 0
5:15 pm 17:15 Sunny 67 19.4 51 10.6 57 57 E 10 17 30.06 1018 10 16.0934 0 0
5:35 pm 17:35 Sunny 67 19.5 51 10.5 56 56 ENE 10 17 30.06 1018 10 16.0934 0 0
5:55 pm 17:55 Sunny 67 19.7 51 10.5 56 56 E 12 19 30.06 1018 10 16.0934 0 0
6:15 pm 18:15 Sunny 67 19.3 51 10.5 57 57 ENE 14 22 30.06 1018 10 16.0934 0 0
6:35 pm 18:35 Sunny 66 18.9 50 10.1 57 57 E 10 17 30.06 1018 10 16.0934 0 0
6:55 pm 18:55 Sunny 65 18.5 50 10.2 59 59 E 9 15 30.06 1018 10 16.0934 0 0
7:15 pm 19:15 Sunny 64 17.5 50 10.1 62 62 E 7 11 30.06 1018 10 16.0934 0 0
7:35 pm 19:35 Clear 61 16.2 50 10.2 68 68 ENE 7 11 30.09 1019 10 16.0934 0 0
7:55 pm 19:55 Clear 59 15.1 50 10.2 73 73 ENE 5 7 30.09 1019 10 16.0934 0 0
8:15 pm 20:15 Clear 57 14 50 10.2 78 78 ENE 6 9 30.09 1019 10 16.0934 0 0
8:35 pm 20:35 Clear 56 13.5 51 10.3 81 81 ENE 5 7 30.09 1019 10 16.0934 0 0
8:55 pm 20:55 Clear 55 13 50 10.1 83 83 ENE 7 11 30.12 1020 10 16.0934 0 0
9:15 pm 21:15 Clear 55 12.8 50 10.2 84 84 E 5 7 30.12 1020 10 16.0934 0 0
9:35 pm 21:35 Clear 56 13.1 50 10.1 82 82 E 6 9 30.15 1021 10 16.0934 0 0
9:55 pm 21:55 Clear 55 13 50 10 82 82 E 5 7 30.15 1021 10 16.0934 0 0
10:15 pm 22:15 Clear 55 13 50 9.8 81 81 E 6 9 30.15 1021 10 16.0934 0 0
10:35 pm 22:35 Partly Cloudy 55 12.6 49 9.7 83 83 E 7 11 30.15 1021 10 16.0934 0 0
10:55 pm 22:55 Partly Cloudy 54 12.4 49 9.5 83 83 E 6 9 30.15 1021 10 16.0934 0 0
11:15 pm 23:15 Partly Cloudy 54 12 49 9.3 84 84 ESE 6 9 30.15 1021 10 16.0934 0 0
11:35 pm 23:35 Clear 53 11.5 49 9.3 86 86 Calm 30.18 1022 10 16.0934 0 0
11:55 pm 23:55 Clear 53 11.6 49 9.2 85 85 ESE 3 6 30.18 1022 10 16.0934 0 0

Powered by AerisWeather